User: anonymous   Login
Location: Coleto Creek Park and Reservoir
(28.7196°N, 97.1740°W)
Time: 00:29:13
(UTC-05:00)
Language:

Hubble Space Telescope - Orbit

View from above orbital plane
View from above orbital plane
View from above satellite
View from above satellite

Ground track
Ground track

The orbit data is extracted from the following two-line orbital elements,

1 20580U 90037B   17112.91790102 +.00001074 +00000-0 +55553-4 0  9994
2 20580 028.4707 012.7205 0002499 299.7741 159.1374 15.08741521281842
Epoch (UTC): 22 April 2017 22:01:46
Eccentricity: 0.0002499
inclination: 28.4707°
perigee height: 538 km
apogee height: 542 km
right ascension of ascending node: 12.7205°
argument of perigee: 299.7741°
revolutions per day: 15.08741521
mean anomaly at epoch: 159.1374°
orbit number at epoch: 28184

The dashed part of the orbit path shows where the satellite is in the earth's shadow,  

DLR